Flag for India

Past Weather in Surendranagar, Gujarat, India — Yesterday and Last 2 Weeks

Now
97 °F

Scattered clouds.


Feels Like: 126 °F
Forecast: 93 / 80 °F
Wind: 6 mph from West

Location: Ahmadabad Airport
Current Time: Sep 24, 2020 at 5:25:07 pm
Latest Report: Sep 24, 2020 at 5:00 pm
Visibility: 3 mi
Pressure29.68 "Hg
Humidity: 67%
Dew Point: 84 °F
Location of SurendranagarLocation

Past Weather in Surendranagar — Graph

°F

Surendranagar Temperature Yesterday

Maximum temperature yesterday: 97 °F (at 11:00 am)
Minimum temperature yesterday: 86 °F (at 5:30 am)
Average temperature yesterday: 91 °F

High & Low Weather Summary for the Past Weeks

 TemperatureHumidityPressure
High106 °F (Sep 22, 3:30 pm)100% (Sep 11, 7:30 pm)29.77 "Hg (Sep 11, 7:30 pm)
Low79 °F (Sep 11, 8:00 pm)48% (Sep 22, 3:30 pm)29.45 "Hg (Sep 22, 3:30 pm)
Average88 °F82%29.65 "Hg
* Reported Sep 9 3:30 pm — Sep 24 4:00 pm, Surendranagar. Weather by CustomWeather, © 2020

Note: Actual official high and low records may vary slightly from our data, if they occured in-between our weather recording intervals... More about our weather records

Surendranagar Weather History for the Previous 24 Hours

Scroll right to see more
 ConditionsComfort  
Time TempWeatherWind HumidityBarometerVisibility
4:00 pm
Thu, Sep 24
99 °FScattered clouds.6 mph64%29.68 "Hg3 mi
3:30 pm99 °FScattered clouds.8 mph64%29.68 "Hg3 mi
3:00 pm99 °FScattered clouds.8 mph64%29.68 "Hg3 mi
2:30 pm99 °FScattered clouds.6 mph64%29.68 "Hg3 mi
2:00 pm97 °FScattered clouds.9 mph67%29.71 "Hg3 mi
1:30 pm97 °FScattered clouds.3 mph67%29.71 "Hg3 mi
1:00 pm97 °FScattered clouds.6 mph67%29.71 "Hg3 mi
12:30 pm95 °FScattered clouds.7 mph71%29.74 "Hg3 mi
12:00 pm95 °FScattered clouds.6 mph71%29.74 "Hg3 mi
11:30 am95 °FScattered clouds.8 mph67%29.74 "Hg3 mi
11:00 am93 °FScattered clouds.7 mph75%29.74 "Hg2 mi
10:30 am93 °FScattered clouds.8 mph71%29.77 "Hg2 mi
9:30 am90 °FFog.7 mph75%29.77 "Hg2 mi
9:00 am90 °FFog.9 mph79%29.74 "Hg2 mi
8:30 am88 °FFog.5 mph89%29.74 "Hg1 mi
8:00 am86 °FFog.7 mph94%29.74 "Hg1 mi
7:30 am84 °FFog.5 mph94%29.71 "Hg1 mi
7:00 am84 °FFog.5 mph89%29.71 "Hg1 mi
6:30 am84 °FFog.3 mph89%29.68 "Hg1 mi
6:00 am84 °FFog.5 mph89%29.68 "Hg2 mi
5:30 am84 °FFog.6 mph89%29.68 "Hg2 mi
5:00 am82 °FFog.5 mph94%29.65 "Hg2 mi
4:30 am82 °FFog.6 mph94%29.65 "Hg2 mi
4:00 am84 °FFog.5 mph89%29.65 "Hg2 mi
3:30 am82 °FFog.5 mph94%29.65 "Hg2 mi
3:00 am84 °FPassing clouds.6 mph89%29.65 "Hg2 mi
2:30 am84 °FPassing clouds.7 mph84%29.65 "Hg2 mi
2:00 am84 °FPassing clouds.7 mph89%29.65 "Hg2 mi
1:30 am84 °FFog.6 mph89%29.65 "Hg2 mi
1:00 am86 °FFog.7 mph89%29.65 "Hg2 mi
12:30 am86 °FFog.6 mph94%29.65 "Hg2 mi
12:00 am86 °FFog.7 mph94%29.65 "Hg2 mi
11:30 pm
Wed, Sep 23
88 °FFog.7 mph89%29.68 "Hg2 mi
11:00 pm88 °FFog.6 mph94%29.68 "Hg2 mi
10:30 pm88 °FFog.6 mph94%29.65 "Hg2 mi
10:00 pm88 °FFog.8 mph94%29.65 "Hg2 mi
9:30 pm90 °FFog.8 mph89%29.65 "Hg2 mi
9:00 pm90 °FFog.7 mph89%29.62 "Hg2 mi
8:30 pm90 °FFog.8 mph84%29.62 "Hg2 mi
8:00 pm90 °FHaze.7 mph84%29.59 "Hg2 mi
7:30 pm90 °FHaze.6 mph84%29.59 "Hg2 mi
7:00 pm91 °FBroken clouds.7 mph84%29.56 "Hg2 mi
6:30 pm91 °FBroken clouds.8 mph84%29.56 "Hg2 mi
5:30 pm91 °FBroken clouds.9 mph84%29.56 "Hg2 mi
5:00 pm93 °FBroken clouds.10 mph80%29.56 "Hg2 mi
Weather by CustomWeather, © 2020

See weather overview